Tracking 29790 objects as of 12-Oct-2024
HD Live streaming from Space Station
objects crossing your sky now

STARLINK-1193

Track STARLINK-1193 now!
10-day predictions
STARLINK-1193 is classified as:


NORAD ID: 45100
Int'l Code: 2020-006BJ
Perigee: 553.3 km
Apogee: 555.2 km
Inclination: 53.1 °
Period: 95.6 minutes
Semi major axis: 6925 km
RCS: Unknown
Launch date: January 29, 2020
Source: United States (US)
Launch site: AIR FORCE EASTERN TEST RANGE (AFETR)
Your satellite tracking list
Your tracking list is empty




NASA's NSSDC Master Catalog

Two Line Element Set (TLE):
1 45100U 20006BJ  24285.58828592  .00012993  00000-0  88868-3 0  9991
2 45100  53.0541  34.5080 0001425 101.1785 258.9364 15.06435837259538
Source of the keplerian elements: AFSPC